OEFAA LIPB-LIRA

Flight info

Callsign OEFAA
Flight time 0h 58m
Altitude 19000
Route VIC L12 LUMAV Q58 AMTEL/N0403F410 Y510 GITOD
Aircraft HDJT/L-SABDGRWY/H

Departure

Time 2026-05-07 16:46
Airport Bolzano Airport (LIPB)

Arrival

Time 2026-05-07 17:44
Airport Ciampino–G. B. Pastine International Airport (LIRA)
Time Latitude Longitude Altitude Speed Heading
2026-05-07 16:36 46.46352 11.32895 782 ft 0 kts 11°
2026-05-07 16:43 46.46354 11.32892 782 ft 2 kts 281°
2026-05-07 16:43 46.46383 11.32861 782 ft 8 kts 12°
2026-05-07 16:43 46.46445 11.32874 782 ft 10 kts 11°
2026-05-07 16:44 46.46514 11.32892 782 ft 11 kts 11°
2026-05-07 16:44 46.46602 11.32915 782 ft 14 kts 10°
2026-05-07 16:44 46.46671 11.32932 782 ft 0 kts 350°
2026-05-07 16:44 46.46679 11.32923 782 ft 3 kts 295°
2026-05-07 16:45 46.46682 11.32883 783 ft 5 kts 280°
2026-05-07 16:45 46.46683 11.32822 783 ft 8 kts 230°
2026-05-07 16:45 46.46597 11.32789 782 ft 31 kts 191°
2026-05-07 16:45 46.46179 11.32680 784 ft 90 kts 190°
2026-05-07 16:46 46.45396 11.32481 836 ft 132 kts 189°
2026-05-07 16:46 46.44442 11.32224 1255 ft 144 kts 192°
2026-05-07 16:46 46.43459 11.31941 1820 ft 150 kts 189°
2026-05-07 16:46 46.42341 11.31659 2229 ft 177 kts 191°
2026-05-07 16:47 46.41165 11.31048 2898 ft 183 kts 213°
2026-05-07 16:47 46.40219 11.29991 3614 ft 182 kts 217°
2026-05-07 16:47 46.39192 11.28852 4507 ft 188 kts 212°
2026-05-07 16:47 46.38009 11.28144 5446 ft 182 kts 194°
2026-05-07 16:48 46.36777 11.27608 6229 ft 187 kts 198°
2026-05-07 16:48 46.35540 11.27014 7009 ft 189 kts 197°
2026-05-07 16:48 46.34290 11.26437 7921 ft 189 kts 198°
2026-05-07 16:48 46.33031 11.25873 8721 ft 189 kts 198°
2026-05-07 16:49 46.31752 11.25292 9357 ft 201 kts 198°
2026-05-07 16:49 46.30349 11.24654 9857 ft 215 kts 198°
2026-05-07 16:49 46.28927 11.24008 10682 ft 214 kts 199°
2026-05-07 16:49 46.27514 11.23368 11428 ft 217 kts 199°
2026-05-07 16:50 46.26069 11.22710 12199 ft 218 kts 198°
2026-05-07 16:50 46.24614 11.22059 12963 ft 220 kts 199°
2026-05-07 16:50 46.23148 11.21396 13693 ft 222 kts 199°
2026-05-07 16:50 46.21670 11.20727 14355 ft 223 kts 199°
2026-05-07 16:51 46.20181 11.20055 15013 ft 224 kts 199°
2026-05-07 16:51 46.18706 11.19388 15688 ft 226 kts 199°
2026-05-07 16:51 46.17199 11.18709 16358 ft 228 kts 199°
2026-05-07 16:51 46.15681 11.18030 17036 ft 229 kts 200°
2026-05-07 16:52 46.14150 11.17341 17658 ft 231 kts 200°
2026-05-07 16:52 46.12609 11.16650 18325 ft 232 kts 200°
2026-05-07 16:52 46.11067 11.15954 18876 ft 234 kts 200°
2026-05-07 16:52 46.09486 11.15323 19424 ft 237 kts 194°
2026-05-07 16:53 46.07825 11.15158 20001 ft 242 kts 184°
2026-05-07 16:53 46.06151 11.15472 20597 ft 248 kts 173°
2026-05-07 16:53 46.04444 11.16332 20815 ft 272 kts 160°
2026-05-07 16:53 46.02826 11.17820 21383 ft 281 kts 149°
2026-05-07 16:54 46.01354 11.19735 21893 ft 286 kts 146°
2026-05-07 16:54 45.99863 11.21641 22431 ft 288 kts 147°
2026-05-07 16:54 45.98369 11.23530 22912 ft 290 kts 147°
2026-05-07 16:54 45.96857 11.25471 23401 ft 293 kts 147°
2026-05-07 16:55 45.95332 11.27433 23867 ft 295 kts 147°
2026-05-07 16:55 45.93805 11.29403 24304 ft 296 kts 148°
2026-05-07 16:55 45.92256 11.31379 24765 ft 298 kts 148°
2026-05-07 16:55 45.90699 11.33365 25225 ft 301 kts 148°
2026-05-07 16:56 45.89132 11.35374 25682 ft 303 kts 149°
2026-05-07 16:56 45.87554 11.37391 26164 ft 305 kts 149°
2026-05-07 16:56 45.84361 11.41464 27017 ft 309 kts 149°
2026-05-07 16:57 45.82766 11.43498 27420 ft 312 kts 150°
2026-05-07 16:57 45.81140 11.45565 27876 ft 313 kts 150°
2026-05-07 16:57 45.79506 11.47647 28314 ft 315 kts 150°
2026-05-07 16:57 45.77861 11.49740 28748 ft 318 kts 150°
2026-05-07 16:58 45.76196 11.51852 29203 ft 320 kts 150°
2026-05-07 16:58 45.74526 11.53973 29652 ft 322 kts 150°
2026-05-07 16:58 45.72842 11.56108 30070 ft 324 kts 150°
2026-05-07 16:58 45.71144 11.58260 30428 ft 326 kts 150°
2026-05-07 16:59 45.69446 11.60412 30861 ft 324 kts 150°
2026-05-07 16:59 45.67762 11.62533 31327 ft 320 kts 153°
2026-05-07 16:59 45.65973 11.64307 31769 ft 308 kts 161°
2026-05-07 16:59 45.64112 11.65633 32199 ft 298 kts 169°
2026-05-07 17:00 45.62173 11.66559 32639 ft 289 kts 176°
2026-05-07 17:00 45.60224 11.67083 33088 ft 281 kts 183°
2026-05-07 17:00 45.58295 11.67230 33513 ft 275 kts 189°
2026-05-07 17:00 45.56402 11.67088 33936 ft 272 kts 191°
2026-05-07 17:01 45.54512 11.66954 34278 ft 272 kts 190°
2026-05-07 17:01 45.52609 11.66829 34586 ft 273 kts 190°
2026-05-07 17:01 45.50728 11.66692 34873 ft 275 kts 190°
2026-05-07 17:01 45.48770 11.66542 34960 ft 283 kts 190°
2026-05-07 17:02 45.46787 11.66395 34963 ft 294 kts 190°
2026-05-07 17:02 45.44704 11.66246 34981 ft 303 kts 189°
2026-05-07 17:02 45.40366 11.65934 34985 ft 320 kts 189°
2026-05-07 17:03 45.35842 11.65608 34984 ft 333 kts 189°
2026-05-07 17:03 45.31102 11.65267 34990 ft 345 kts 189°
2026-05-07 17:04 45.26238 11.64916 34993 ft 354 kts 189°
2026-05-07 17:04 45.21279 11.64562 34989 ft 358 kts 189°
2026-05-07 17:05 45.16280 11.64201 34989 ft 360 kts 189°
2026-05-07 17:05 45.11297 11.63839 34986 ft 361 kts 189°
2026-05-07 17:06 45.06266 11.63462 34989 ft 362 kts 189°
2026-05-07 17:06 45.01222 11.63093 34994 ft 363 kts 189°
2026-05-07 17:07 44.96168 11.62719 34994 ft 364 kts 189°
2026-05-07 17:07 44.91136 11.62349 34997 ft 364 kts 189°
2026-05-07 17:08 44.86073 11.61978 34999 ft 364 kts 189°
2026-05-07 17:08 44.81000 11.61606 35002 ft 364 kts 189°
2026-05-07 17:09 44.75945 11.61106 34994 ft 364 kts 191°
2026-05-07 17:09 44.70913 11.60629 34989 ft 365 kts 189°
2026-05-07 17:10 44.65843 11.60141 34985 ft 365 kts 190°
2026-05-07 17:10 44.60768 11.59656 34983 ft 365 kts 190°
2026-05-07 17:11 44.55690 11.59171 34983 ft 365 kts 190°
2026-05-07 17:11 44.50617 11.58688 34984 ft 365 kts 190°
2026-05-07 17:12 44.45567 11.58206 34985 ft 365 kts 190°
2026-05-07 17:12 44.40500 11.57726 34994 ft 364 kts 190°
2026-05-07 17:13 44.35434 11.57246 35000 ft 364 kts 190°
2026-05-07 17:13 44.30405 11.56772 35014 ft 364 kts 190°
2026-05-07 17:14 44.25353 11.56288 35028 ft 363 kts 191°
2026-05-07 17:14 44.20305 11.55814 35028 ft 363 kts 190°
2026-05-07 17:15 44.15265 11.55335 35017 ft 363 kts 191°
2026-05-07 17:15 44.10218 11.54861 35001 ft 362 kts 191°
2026-05-07 17:16 44.05217 11.54383 35022 ft 363 kts 189°
2026-05-07 17:16 44.00156 11.53969 34990 ft 368 kts 187°
2026-05-07 17:17 43.94985 11.54412 34988 ft 372 kts 184°
2026-05-07 17:17 43.89832 11.54833 34974 ft 374 kts 183°
2026-05-07 17:18 43.84627 11.55323 34970 ft 375 kts 184°
2026-05-07 17:18 43.79404 11.55774 34969 ft 376 kts 184°
2026-05-07 17:19 43.74251 11.56245 34972 ft 376 kts 184°
2026-05-07 17:19 43.69044 11.56794 34976 ft 383 kts 176°
2026-05-07 17:20 43.63915 11.59270 34982 ft 401 kts 160°
2026-05-07 17:20 43.59111 11.63356 34984 ft 405 kts 156°
2026-05-07 17:21 43.55127 11.66777 34978 ft 407 kts 156°
2026-05-07 17:21 43.50347 11.70959 34974 ft 407 kts 156°
2026-05-07 17:22 43.45548 11.75095 34973 ft 407 kts 156°
2026-05-07 17:22 43.40751 11.79253 34835 ft 410 kts 156°
2026-05-07 17:23 43.38296 11.81360 34309 ft 418 kts 156°
2026-05-07 17:23 43.35868 11.83463 33739 ft 408 kts 156°
2026-05-07 17:23 43.33521 11.85504 33212 ft 401 kts 156°
2026-05-07 17:23 43.31152 11.87530 32680 ft 400 kts 156°
2026-05-07 17:24 43.28774 11.89555 32144 ft 404 kts 156°
2026-05-07 17:24 43.26378 11.91618 31613 ft 409 kts 156°
2026-05-07 17:24 43.23958 11.93707 31068 ft 412 kts 156°
2026-05-07 17:24 43.21512 11.95807 30522 ft 415 kts 156°
2026-05-07 17:25 43.19055 11.97902 29962 ft 417 kts 156°
2026-05-07 17:25 43.16580 12.00020 29368 ft 418 kts 155°
2026-05-07 17:25 43.14117 12.02134 28821 ft 418 kts 155°
2026-05-07 17:25 43.11649 12.04244 28272 ft 418 kts 155°
2026-05-07 17:26 43.09184 12.06344 27719 ft 414 kts 155°
2026-05-07 17:26 43.06775 12.08401 27183 ft 410 kts 155°
2026-05-07 17:26 43.04359 12.10462 26645 ft 406 kts 155°
2026-05-07 17:26 43.01972 12.12489 26116 ft 403 kts 155°
2026-05-07 17:27 42.99602 12.14502 25586 ft 399 kts 154°
2026-05-07 17:27 42.97249 12.16505 25063 ft 395 kts 154°
2026-05-07 17:27 42.94921 12.18484 24550 ft 393 kts 154°
2026-05-07 17:27 42.92626 12.20425 24032 ft 391 kts 154°
2026-05-07 17:28 42.90312 12.22379 23513 ft 388 kts 154°
2026-05-07 17:28 42.88035 12.24313 22964 ft 383 kts 154°
2026-05-07 17:28 42.85805 12.26208 22470 ft 366 kts 154°
2026-05-07 17:28 42.83688 12.28002 21998 ft 351 kts 154°
2026-05-07 17:29 42.81621 12.29729 21540 ft 347 kts 154°
2026-05-07 17:29 42.79595 12.31420 21094 ft 344 kts 155°
2026-05-07 17:29 42.77541 12.33056 20650 ft 340 kts 155°
2026-05-07 17:29 42.75516 12.34683 20198 ft 337 kts 154°
2026-05-07 17:30 42.73497 12.36302 19757 ft 335 kts 154°
2026-05-07 17:30 42.71498 12.37895 19311 ft 332 kts 154°
2026-05-07 17:30 42.69514 12.39473 18876 ft 329 kts 154°
2026-05-07 17:30 42.67551 12.41043 18448 ft 326 kts 154°
2026-05-07 17:31 42.65598 12.42597 17990 ft 323 kts 154°
2026-05-07 17:31 42.63657 12.44139 17557 ft 321 kts 154°
2026-05-07 17:31 42.61757 12.45651 17136 ft 320 kts 154°
2026-05-07 17:31 42.59831 12.47187 16715 ft 319 kts 154°
2026-05-07 17:32 42.57922 12.48697 16300 ft 317 kts 154°
2026-05-07 17:32 42.56022 12.50202 15885 ft 315 kts 153°
2026-05-07 17:32 42.54136 12.51709 15478 ft 313 kts 153°
2026-05-07 17:32 42.52263 12.53197 15070 ft 311 kts 153°
2026-05-07 17:33 42.50400 12.54662 14660 ft 308 kts 153°
2026-05-07 17:33 42.48585 12.56101 14265 ft 307 kts 153°
2026-05-07 17:33 42.46750 12.57551 13863 ft 304 kts 154°
2026-05-07 17:33 42.44928 12.58987 13440 ft 303 kts 153°
2026-05-07 17:34 42.43132 12.60411 13038 ft 302 kts 153°
2026-05-07 17:34 42.41293 12.61738 12649 ft 297 kts 161°
2026-05-07 17:34 42.39310 12.62431 12258 ft 292 kts 174°
2026-05-07 17:34 42.37294 12.62562 11872 ft 288 kts 186°
2026-05-07 17:35 42.35325 12.62151 11491 ft 285 kts 192°
2026-05-07 17:35 42.33369 12.61712 11112 ft 284 kts 190°
2026-05-07 17:35 42.31406 12.61334 10731 ft 286 kts 189°
2026-05-07 17:35 42.29494 12.60916 10359 ft 269 kts 191°
2026-05-07 17:36 42.27682 12.60502 10005 ft 260 kts 190°
2026-05-07 17:36 42.25927 12.60123 9656 ft 258 kts 190°
2026-05-07 17:36 42.24185 12.59587 9308 ft 257 kts 201°
2026-05-07 17:36 42.22525 12.58684 8970 ft 257 kts 201°
2026-05-07 17:37 42.20836 12.57873 8611 ft 257 kts 199°
2026-05-07 17:37 42.19145 12.57070 8271 ft 256 kts 200°
2026-05-07 17:37 42.17480 12.56232 7933 ft 255 kts 200°
2026-05-07 17:37 42.15814 12.55398 7599 ft 255 kts 200°
2026-05-07 17:38 42.14170 12.54592 7266 ft 245 kts 200°
2026-05-07 17:38 42.12633 12.53832 6949 ft 233 kts 200°
2026-05-07 17:38 42.11117 12.53081 6651 ft 231 kts 200°
2026-05-07 17:38 42.09685 12.52376 6374 ft 232 kts 200°
2026-05-07 17:39 42.08160 12.51624 6058 ft 232 kts 200°
2026-05-07 17:39 42.06822 12.50963 5790 ft 231 kts 200°
2026-05-07 17:39 42.05309 12.50217 5475 ft 231 kts 200°
2026-05-07 17:39 42.03803 12.49473 5171 ft 231 kts 200°
2026-05-07 17:40 42.02293 12.48731 4865 ft 230 kts 200°
2026-05-07 17:40 42.00792 12.47990 4557 ft 230 kts 200°
2026-05-07 17:40 41.99261 12.47367 4247 ft 229 kts 187°
2026-05-07 17:40 41.97697 12.47456 3952 ft 228 kts 168°
2026-05-07 17:41 41.96219 12.48203 3654 ft 227 kts 150°
2026-05-07 17:41 41.94840 12.49249 3354 ft 227 kts 144°
2026-05-07 17:41 41.93760 12.50721 3057 ft 217 kts 130°
2026-05-07 17:41 41.92576 12.51896 2939 ft 209 kts 154°
2026-05-07 17:42 41.91213 12.52668 2940 ft 215 kts 156°
2026-05-07 17:42 41.89856 12.53458 2948 ft 217 kts 155°
2026-05-07 17:42 41.88508 12.54229 2868 ft 218 kts 156°
2026-05-07 17:42 41.87115 12.55061 2408 ft 223 kts 151°
2026-05-07 17:43 41.85842 12.56281 1793 ft 224 kts 137°
2026-05-07 17:43 41.84509 12.57399 904 ft 237 kts 163°
2026-05-07 17:43 41.83010 12.57671 822 ft 194 kts 178°
2026-05-07 17:43 41.81946 12.57983 602 ft 133 kts 148°
2026-05-07 17:44 41.81238 12.58592 424 ft 116 kts 156°
2026-05-07 17:44 41.80490 12.59099 375 ft 123 kts 155°
2026-05-07 17:44 41.79806 12.59572 393 ft 93 kts 155°
2026-05-07 17:44 41.79481 12.59800 405 ft 36 kts 156°
2026-05-07 17:45 41.79275 12.59933 419 ft 27 kts 148°
2026-05-07 17:45 41.79113 12.60051 427 ft 26 kts 142°
2026-05-07 17:45 41.79029 12.59967 426 ft 18 kts 247°
2026-05-07 17:45 41.79027 12.59920 428 ft 0 kts 292°
2026-05-07 17:46 41.79025 12.59909 428 ft 2 kts 240°
2026-05-07 17:46 41.79014 12.59884 423 ft 5 kts 238°
2026-05-07 17:46 41.78999 12.59840 425 ft 4 kts 255°
2026-05-07 17:46 41.78979 12.59764 428 ft 12 kts 250°